DW4326 Weather Reports


time (UTC)temp
C
wind
direction
speed
KPH
gust
KPH
rain 1hr
cm
rain 24hr
cm
rain mn
cm
humidity
%
barometer
mb
20260510022136 7 185 0.0 6.4 0.00 0.23 0.23 97 1009.8
20260510020636 7 196 0.0 0.0 0.00 0.23 0.23 97 1009.8
20260510015133 7 196 0.0 4.8 0.00 0.23 0.23 97 1009.9
20260510013632 7 198 0.0 3.2 0.00 0.23 0.23 97 1010.0
20260510012133 7 198 0.0 4.8 0.00 0.23 0.23 97 1010.0
20260510010631 7 196 0.0 4.8 0.00 0.23 0.23 96 1009.9
20260510005129 7 195 1.6 6.4 0.00 0.23 0.23 96 1009.9
20260510003628 7 189 0.0 6.4 0.00 0.23 0.23 96 1009.9
20260510002128 7 188 0.0 6.4 0.00 0.23 0.23 96 1009.7
20260510001358 7 190 0.0 4.8 0.00 0.23 0.23 96 1009.4
20260509235127 8 192 1.6 6.4 0.00 0.23 0.23 96 1009.1
20260509233628 8 186 0.0 6.4 0.00 0.23 0.23 96 1009.1
20260509232127 8 186 0.0 6.4 0.00 0.23 0.23 96 1009.1
20260509230624 8 184 0.0 6.4 0.00 0.23 0.23 96 1009.0
20260509225124 8 184 0.0 8.0 0.00 0.23 0.23 96 1009.1
20260509224355 8 182 1.6 6.4 0.00 0.23 0.23 95 1009.1
20260509222121 8 142 0.0 0.0 0.00 0.23 0.23 95 1009.1
20260509220623 8 142 0.0 6.4 0.00 0.23 0.23 95 1009.3
20260509215115 8 213 0.0 8.0 0.00 0.23 0.23 95 1009.4
20260509213616 8 187 1.6 9.7 0.03 0.23 0.23 95 1009.7
20260509213611 8 185 1.6 6.4 0.03 0.23 0.23 95 1009.9
20260509210612 8 182 0.0 6.4 0.03 0.23 0.23 95 1009.8
20260509205109 8 159 0.0 6.4 0.05 0.23 0.23 95 1009.8
20260509203609 8 156 0.0 3.2 0.03 0.20 0.20 95 1010.0
20260509202842 7 202 1.6 8.0 0.03 0.20 0.20 95 1010.0
20260509200608 7 169 1.6 6.4 0.05 0.20 0.20 95 1010.0
20260509195107 7 160 0.0 0.0 0.03 0.18 0.18 94 1010.2
20260509193605 7 160 0.0 3.2 0.05 0.18 0.18 94 1010.3
20260509192105 7 161 0.0 4.8 0.05 0.18 0.18 94 1010.4
20260509190604 7 194 0.0 6.4 0.03 0.15 0.15 93 1010.4
20260509185057 7 155 0.0 4.8 0.05 0.15 0.15 92 1010.5
20260509184326 7 188 0.0 8.0 0.03 0.13 0.13 93 1010.7
20260509182050 7 186 1.6 16.1 0.05 0.13 0.13 92 1010.8
20260509181322 7 177 3.2 17.7 0.05 0.13 0.13 92 1010.8
20260509175046 7 194 3.2 14.5 0.05 0.10 0.10 91 1010.8
20260509173550 7 150 3.2 14.5 0.05 0.10 0.10 91 1011.1
20260509172046 7 170 3.2 11.3 0.05 0.08 0.08 92 1011.1
20260509170544 7 173 3.2 11.3 0.05 0.08 0.08 91 1011.3
20260509165044 7 136 1.6 9.7 0.03 0.05 0.05 91 1011.4
20260509164315 7 177 3.2 12.9 0.03 0.05 0.05 89 1011.6
20260509162042 7 151 1.6 11.3 0.00 0.03 0.03 89 1011.7
20260509160538 7 115 3.2 12.9 0.03 0.03 0.03 87 1011.7
20260509155812 7 177 0.0 6.4 0.03 0.03 0.03 88 1011.9
20260509153533 7 130 1.6 9.7 0.03 0.03 0.03 84 1012.1
20260509152035 8 189 0.0 6.4 0.03 0.03 0.03 82 1012.2
20260509151300 8 175 3.2 12.9 0.00 0.00 0.00 79 1012.1
20260509145028 8 163 4.8 14.5 0.00 0.00 0.00 72 1011.8
20260509143523 9 178 4.8 14.5 0.00 0.00 0.00 69 1011.7
20260509142024 9 153 4.8 17.7 0.00 0.00 0.00 68 1011.8
20260509140523 9 186 4.8 17.7 0.00 0.00 0.00 67 1011.6
20260509135024 9 182 3.2 11.3 0.00 0.00 0.00 66 1011.6
20260509133518 8 355 3.2 12.9 0.00 0.00 0.00 68 1011.7
20260509132020 8 190 3.2 8.0 0.00 0.00 0.00 70 1011.7
20260509130515 7 128 1.6 6.4 0.00 0.00 0.00 73 1011.9
20260509125016 5 119 0.0 0.0 0.00 0.00 0.00 85 1012.0
20260509123512 3 97 0.0 0.0 0.00 0.00 0.00 90 1012.2
20260509122009 1 96 0.0 0.0 0.00 0.00 0.00 94 1012.4
20260509120502 0 96 0.0 0.0 0.00 0.00 0.00 97 1012.7
20260509115001 0 96 0.0 0.0 0.00 0.00 0.00 98 1012.7
20260509113454 -1 96 0.0 0.0 0.00 0.00 0.00 97 1012.8
20260509111955 -1 96 0.0 0.0 0.00 0.00 0.00 96 1012.9
20260509110453 -2 96 0.0 0.0 0.00 0.00 0.00 95 1012.9
20260509104952 -2 96 0.0 0.0 0.00 0.00 0.00 95 1013.0
20260509103453 -2 95 0.0 0.0 0.00 0.00 0.00 95 1012.9
20260509101950 -2 95 0.0 0.0 0.00 0.00 0.00 95 1012.8
20260509101223 -2 95 0.0 0.0 0.00 0.00 0.00 94 1012.6
20260509100446 -2 95 0.0 0.0 0.00 0.00 0.00 94 1012.4
20260509093445 -2 95 0.0 0.0 0.00 0.00 0.00 94 1012.4
20260509091940 -2 95 0.0 0.0 0.00 0.00 0.00 93 1012.3
20260509090438 -2 95 0.0 0.0 0.00 0.00 0.00 94 1012.2
20260509084932 -2 95 0.0 0.0 0.00 0.00 0.00 94 1012.0
20260509083434 -2 95 0.0 0.0 0.00 0.00 0.00 93 1012.0
20260509081929 -1 95 0.0 0.0 0.00 0.00 0.00 93 1011.6
20260509080430 -1 95 0.0 0.0 0.00 0.00 0.00 93 1011.8
20260509074930 -1 95 0.0 0.0 0.00 0.00 0.00 93 1011.9
20260509073430 -1 95 0.0 0.0 0.00 0.00 0.00 92 1011.9
20260509071930 -1 95 0.0 0.0 0.00 0.00 0.00 92 1012.0
20260509070430 -1 95 0.0 0.0 0.00 0.00 0.00 92 1012.1
20260509064931 -1 95 0.0 0.0 0.00 0.00 0.00 91 1012.1
20260509064157 -1 95 0.0 0.0 0.00 0.00 0.00 91 1012.1
20260509061924 0 95 0.0 0.0 0.00 0.00 0.00 91 1012.1
20260509060422 0 95 0.0 0.0 0.00 0.00 0.00 90 1012.1
20260509054923 0 95 0.0 0.0 0.00 0.00 0.00 90 1012.2
20260509053422 0 95 0.0 0.0 0.00 0.00 0.00 89 1012.2
20260509051918 0 95 0.0 0.0 0.00 0.00 0.00 89 1012.0
20260509050418 0 95 0.0 0.0 0.00 0.00 0.00 88 1011.8
20260509045646 0 95 0.0 0.0 0.00 0.00 0.00 88 1011.9
20260509043413 1 95 0.0 0.0 0.00 0.00 0.00 87 1011.7
20260509041914 1 95 0.0 0.0 0.00 0.00 0.00 86 1011.9
20260509040413 1 95 0.0 0.0 0.00 0.00 0.00 85 1011.8
20260509034913 1 95 0.0 0.0 0.00 0.00 0.00 84 1011.7
20260509034145 2 95 0.0 0.0 0.00 0.00 0.00 83 1011.7
20260509031912 2 95 0.0 0.0 0.00 0.00 0.00 82 1011.5
20260509030409 3 128 0.0 0.0 0.00 0.00 0.00 81 1011.5
20260509024909 3 128 0.0 0.0 0.00 0.00 0.00 80 1011.4
20260509023409 4 128 0.0 0.0 0.00 0.00 0.00 79 1011.1